• In Russia
  • List of Countries
  • For 7 days
  • Water Temperature
  • Satellite Maps
  • Weather Map
  • Weather Widgets
  • user-avatar
    Login

    Hourly Weather Korçe

    Today, 28 May, Sunday

    Time Temperature Precipitation Wind Pressure Humidity
    00:00 +7°C° 0 mm 2 mps 666 mmHg 87%
    01:00 +7°C° 0 mm 2 mps 665 mmHg 87%
    02:00 +6°C° 0 mm 2 mps 665 mmHg 87%
    03:00 +6°C° 0 mm 2 mps 665 mmHg 87%
    04:00 +6°C° 0 mm 2 mps 665 mmHg 87%
    05:00 +8°C° 0 mm 2 mps 666 mmHg 83%
    06:00 +9°C° 0 mm 2 mps 667 mmHg 78%
    07:00 +13°C° 0 mm 2 mps 668 mmHg 72%
    08:00 +14°C° 0 mm 2 mps 668 mmHg 64%
    09:00 +16°C° 0 mm 2 mps 669 mmHg 56%
    10:00 +17°C° 0 mm 3 mps 669 mmHg 48%
    11:00 +17°C° 0.3 mm 3 mps 669 mmHg 50%
    12:00 +18°C° 0.3 mm 3 mps 669 mmHg 51%
    13:00 +18°C° 0.3 mm 3 mps 669 mmHg 52%
    14:00 +17°C° 0.5 mm 3 mps 669 mmHg 56%
    15:00 +17°C° 0.5 mm 2 mps 669 mmHg 60%
    16:00 +16°C° 0.5 mm 2 mps 669 mmHg 64%
    17:00 +14°C° 0.1 mm 2 mps 669 mmHg 70%
    18:00 +13°C° 0.1 mm 2 mps 668 mmHg 77%
    19:00 +11°C° 0.1 mm 1 mps 668 mmHg 84%
    20:00 +10°C° 0 mm 1 mps 668 mmHg 85%
    21:00 +10°C° 0 mm 1 mps 668 mmHg 86%
    22:00 +9°C° 0 mm 1 mps 668 mmHg 86%
    23:00 +8°C° 0 mm 2 mps 668 mmHg 87%

    Tomorrow, 29 May, Monday

    Time Temperature Precipitation Wind Pressure Humidity
    00:00 +8°C° 0 mm 2 mps 668 mmHg 87%
    01:00 +7°C° 0 mm 2 mps 668 mmHg 88%
    02:00 +7°C° 0 mm 2 mps 668 mmHg 88%
    03:00 +7°C° 0 mm 2 mps 667 mmHg 88%
    04:00 +7°C° 0 mm 2 mps 667 mmHg 88%
    05:00 +9°C° 0 mm 2 mps 668 mmHg 83%
    06:00 +12°C° 0 mm 2 mps 668 mmHg 77%
    07:00 +14°C° 0 mm 1 mps 669 mmHg 71%
    08:00 +15°C° 0 mm 1 mps 669 mmHg 64%
    09:00 +18°C° 0 mm 1 mps 670 mmHg 56%
    10:00 +20°C° 0 mm 1 mps 670 mmHg 49%
    11:00 +20°C° 0.4 mm 1 mps 670 mmHg 51%
    12:00 +19°C° 0.4 mm 2 mps 670 mmHg 52%
    13:00 +19°C° 0.4 mm 2 mps 670 mmHg 54%
    14:00 +19°C° 1 mm 2 mps 669 mmHg 58%
    15:00 +18°C° 1 mm 2 mps 669 mmHg 62%
    16:00 +18°C° 1 mm 2 mps 669 mmHg 65%
    17:00 +15°C° 0.5 mm 1 mps 668 mmHg 73%
    18:00 +13°C° 0.5 mm 1 mps 667 mmHg 80%
    19:00 +11°C° 0.5 mm 1 mps 667 mmHg 87%
    20:00 +10°C° 0.2 mm 1 mps 667 mmHg 87%
    21:00 +9°C° 0.2 mm 1 mps 667 mmHg 88%
    22:00 +8°C° 0.2 mm 0 mps 667 mmHg 89%
    23:00 +7°C° 0 mm 0 mps 666 mmHg 89%

    Day after tomorrow, 30 May, Tuesday

    Time Temperature Precipitation Wind Pressure Humidity
    00:00 +7°C° 0 mm 0 mps 666 mmHg 89%
    01:00 +7°C° 0 mm 0 mps 666 mmHg 89%
    02:00 +6°C° 0 mm 0 mps 666 mmHg 89%
    03:00 +6°C° 0 mm 0 mps 666 mmHg 89%
    04:00 +6°C° 0 mm 0 mps 665 mmHg 90%
    05:00 +9°C° 0 mm 0 mps 666 mmHg 83%
    06:00 +12°C° 0 mm 0 mps 667 mmHg 76%
    07:00 +15°C° 0 mm 0 mps 668 mmHg 69%
    08:00 +16°C° 0.2 mm 0 mps 669 mmHg 64%
    09:00 +19°C° 0.2 mm 1 mps 669 mmHg 59%
    10:00 +21°C° 0.2 mm 1 mps 670 mmHg 54%
    11:00 +21°C° 0.5 mm 1 mps 670 mmHg 54%
    12:00 +20°C° 0.5 mm 2 mps 670 mmHg 54%
    13:00 +20°C° 0.5 mm 2 mps 670 mmHg 54%
    14:00 +20°C° 0.4 mm 2 mps 670 mmHg 55%
    15:00 +19°C° 0.4 mm 2 mps 669 mmHg 57%
    16:00 +19°C° 0.4 mm 2 mps 669 mmHg 58%
    17:00 +16°C° 0.1 mm 2 mps 669 mmHg 66%
    18:00 +14°C° 0.1 mm 2 mps 668 mmHg 74%
    19:00 +12°C° 0.1 mm 1 mps 668 mmHg 82%
    20:00 +11°C° 0 mm 1 mps 668 mmHg 82%
    21:00 +10°C° 0 mm 1 mps 668 mmHg 83%
    22:00 +9°C° 0 mm 1 mps 668 mmHg 83%
    23:00 +9°C° 0 mm 1 mps 668 mmHg 83%

    31 May, Wednesday

    Time Temperature Precipitation Wind Pressure Humidity
    00:00 +8°C° 0 mm 1 mps 667 mmHg 83%
    01:00 +8°C° 0 mm 1 mps 667 mmHg 83%
    02:00 +8°C° 0 mm 1 mps 667 mmHg 83%
    03:00 +8°C° 0 mm 1 mps 667 mmHg 84%
    04:00 +7°C° 0 mm 1 mps 667 mmHg 84%
    05:00 +10°C° 0 mm 1 mps 668 mmHg 75%
    06:00 +13°C° 0 mm 1 mps 669 mmHg 65%
    07:00 +16°C° 0 mm 1 mps 670 mmHg 56%
    08:00 +18°C° 0 mm 1 mps 670 mmHg 51%
    09:00 +20°C° 0 mm 1 mps 671 mmHg 46%
    10:00 +21°C° 0 mm 2 mps 671 mmHg 41%
    11:00 +21°C° 0 mm 2 mps 671 mmHg 41%
    12:00 +23°C° 0 mm 2 mps 671 mmHg 40%
    13:00 +22°C° 0 mm 3 mps 671 mmHg 40%
    14:00 +22°C° 0 mm 3 mps 671 mmHg 43%
    15:00 +21°C° 0 mm 3 mps 670 mmHg 46%
    16:00 +21°C° 0 mm 3 mps 670 mmHg 50%
    17:00 +18°C° 0 mm 2 mps 669 mmHg 61%
    18:00 +15°C° 0 mm 2 mps 669 mmHg 72%
    19:00 +13°C° 0 mm 1 mps 668 mmHg 83%
    20:00 +12°C° 0 mm 1 mps 668 mmHg 84%
    21:00 +11°C° 0 mm 1 mps 668 mmHg 86%
    22:00 +10°C° 0 mm 1 mps 667 mmHg 87%
    23:00 +9°C° 0 mm 1 mps 667 mmHg 87%

    1 June, Thursday

    Time Temperature Precipitation Wind Pressure Humidity
    00:00 +9°C° 0 mm 1 mps 667 mmHg 86%
    01:00 +9°C° 0 mm 1 mps 667 mmHg 86%
    02:00 +8°C° 0 mm 1 mps 667 mmHg 85%
    03:00 +8°C° 0 mm 1 mps 666 mmHg 84%
    04:00 +8°C° 0 mm 1 mps 666 mmHg 83%
    05:00 +11°C° 0 mm 1 mps 667 mmHg 73%
    06:00 +14°C° 0 mm 1 mps 668 mmHg 63%
    07:00 +18°C° 0 mm 1 mps 669 mmHg 53%
    08:00 +19°C° 0 mm 1 mps 669 mmHg 48%
    09:00 +21°C° 0 mm 1 mps 670 mmHg 43%
    10:00 +23°C° 0 mm 2 mps 670 mmHg 38%
    11:00 +23°C° 0 mm 2 mps 670 mmHg 38%
    12:00 +24°C° 0 mm 2 mps 670 mmHg 38%
    13:00 +24°C° 0 mm 3 mps 670 mmHg 38%
    14:00 +24°C° 0 mm 3 mps 669 mmHg 41%
    15:00 +22°C° 0 mm 3 mps 669 mmHg 44%
    16:00 +22°C° 0 mm 3 mps 669 mmHg 47%
    17:00 +19°C° 0 mm 3 mps 668 mmHg 58%
    18:00 +16°C° 0 mm 2 mps 667 mmHg 69%
    19:00 +13°C° 0 mm 1 mps 667 mmHg 80%
    20:00 +12°C° 0 mm 1 mps 667 mmHg 81%
    21:00 +11°C° 0 mm 1 mps 667 mmHg 82%
    22:00 +10°C° 0 mm 1 mps 667 mmHg 84%
    23:00 +10°C° 0 mm 1 mps 666 mmHg 82%

    2 June, Friday

    Time Temperature Precipitation Wind Pressure Humidity
    00:00 +10°C° 0 mm 1 mps 666 mmHg 81%
    01:00 +10°C° 0 mm 1 mps 666 mmHg 79%
    02:00 +10°C° 0 mm 1 mps 666 mmHg 79%
    03:00 +9°C° 0 mm 1 mps 665 mmHg 79%
    04:00 +9°C° 0 mm 1 mps 665 mmHg 80%
    05:00 +12°C° 0 mm 1 mps 666 mmHg 71%
    06:00 +14°C° 0 mm 1 mps 667 mmHg 63%
    07:00 +18°C° 0 mm 1 mps 668 mmHg 54%
    08:00 +20°C° 0 mm 1 mps 668 mmHg 49%
    09:00 +21°C° 0 mm 1 mps 668 mmHg 44%
    10:00 +23°C° 0 mm 2 mps 669 mmHg 39%
    11:00 +23°C° 0 mm 2 mps 669 mmHg 38%
    12:00 +24°C° 0 mm 3 mps 669 mmHg 37%
    13:00 +24°C° 0 mm 3 mps 668 mmHg 36%
    14:00 +24°C° 0.1 mm 3 mps 668 mmHg 39%
    15:00 +22°C° 0.1 mm 3 mps 668 mmHg 43%
    16:00 +21°C° 0.1 mm 3 mps 668 mmHg 47%
    17:00 +19°C° 0.1 mm 3 mps 667 mmHg 58%
    18:00 +16°C° 0.1 mm 2 mps 666 mmHg 69%
    19:00 +14°C° 0.1 mm 1 mps 666 mmHg 80%
    20:00 +13°C° 0.1 mm 1 mps 666 mmHg 81%
    21:00 +12°C° 0.1 mm 1 mps 666 mmHg 83%
    22:00 +10°C° 0.1 mm 1 mps 666 mmHg 84%
    23:00 +10°C° 0 mm 1 mps 666 mmHg 84%
    Show more